Vertical_Velocity
-2 -1 1 1 1 -0 0 1 -2 -3 -2 -2 -1 -1 -4 -3 -5 -1 -3 -2 -6 -5 8 -2 1 8 3 2 5 1 -9 -31 -7 28 36 -5 8 -1 2 1 1 2 -1
-3 -4 -2 -1 0 1 -0 0 -2 -0 -2 -5 -1 -4 -5 1 -1 -4 1 -2 -1 -3 -3 3 -1 -0 2 1 3 5 5 4 -28 -14 50 7 8 -1 7 3 6 4 -2
-1 -1 -4 -4 -2 -1 -1 -1 -1 1 1 1 -3 -2 -2 -6 -2 1 -3 2 0 -2 -3 -0 1 -1 -0 1 2 1 1 -7 -7 -9 24 22 -8 -1 -0 2 -0 4 -3
-4 -7 -3 -1 -2 -5 -3 -2 -0 1 1 1 -1 -1 -1 -7 -1 -2 2 -2 -2 -3 -3 3 -3 -1 -3 3 -2 -2 -2 0 4 -19 -14 66 34 -18 -10 18 2 1 -1
-2 0 -2 -1 -0 -1 -1 -3 -2 -3 -0 1 1 -3 -3 -1 -7 -1 -3 -1 -2 1 -0 -1 2 -1 0 0 0 -0 -3 -0 -4 -22 -25 28 45 7 -1 -23 -4 6 -0
-3 -2 -2 -3 0 4 0 1 -0 1 -2 -1 4 -0 -3 -3 -2 -5 -2 0 -1 -1 -6 -2 -1 -2 -1 1 -1 -2 -0 3 8 -10 3 -23 24 -16 -7 -3 -6 -0 -1
-3 -2 -2 0 0 0 2 0 -1 2 0 -3 -3 1 -2 -2 -4 0 -3 -6 -1 -1 1 -3 -4 1 -2 1 2 -1 0 -4 5 -6 -3 12 -13 26 16 15 5 -3 -4
-1 -3 -3 -3 -3 -3 2 -2 -3 -1 -0 -0 -3 -3 3 -2 0 -5 -3 0 -4 -1 1 2 -3 -1 -3 -0 3 2 1 -1 -1 -2 2 0 11 31 5 -8 -5 -0 2
1 1 -1 -2 -0 0 1 0 -1 -1 0 -1 -3 -1 1 -0 -1 1 -5 -5 2 1 -3 1 2 -1 2 -6 -1 1 1 1 -11 25 -2 -8 3 -18 7 10 -2 -11 -11
2 -1 -2 -1 1 0 -3 -1 -0 -2 -0 -2 -4 -2 -1 2 0 -2 5 -0 -4 -4 -1 -4 -7 4 1 -1 -3 0 2 -0 -7 -6 29 25 2 -11 3 1 -2 6 8
-3 -4 0 -1 -5 -1 -2 -1 -4 -4 -2 -3 -4 -4 -2 -4 -1 -2 -1 -1 -4 -3 -3 -5 2 1 1 1 -7 1 5 -1 -4 8 -10 7 33 24 -2 2 1 7 -1
-4 -10 -8 -7 -2 -4 -5 -2 1 -0 -6 -4 -5 -4 -4 -6 -5 -2 5 3 1 -2 -6 -5 -10 -7 5 0 -4 -3 3 2 -5 5 -10 8 5 20 13 -8 5 -7 19
-1 -5 -1 -1 -1 -1 -1 -4 -5 -4 -4 -4 -4 -4 -4 -5 -5 -5 -4 -3 -0 2 -3 -0 -5 -8 1 -1 1 -7 4 -1 -3 1 5 21 20 -9 -8 -7 -10 2 11
-3 1 4 4 4 1 1 4 1 -0 -4 -4 -3 -4 -4 -4 -4 -3 -6 -8 -3 -5 -3 -4 -2 -7 -5 -2 -2 -8 2 2 -0 4 3 14 1 -2 -8 -7 -6 8 2
3 -1 -4 -0 -0 -0 3 1 -1 1 -3 -3 -3 -3 -3 -3 -5 -4 -4 -5 -4 -4 -6 -7 -3 -2 -4 -4 -5 -4 -2 3 -2 5 -6 12 5 20 21 6 1 -1 -8
3 2 -4 -2 -4 -4 -1 0 0 1 -2 -2 -3 -3 -3 -0 -0 -1 -4 -6 -2 -3 -3 -4 -4 -3 -5 1 0 -2 -1 4 -3 -1 -5 9 -6 -2 -5 -5 2 -4 -8
6 7 0 1 0 -1 -2 -1 -2 1 -1 -1 -2 -4 -3 -1 0 -1 -3 -5 -1 -0 -4 -5 -3 -5 -2 -1 -0 -1 -1 3 -1 7 -4 22 6 3 -6 5 6 -3 -9
-1 -1 1 3 1 1 1 -1 -4 2 -1 1 -2 -2 -2 -2 1 -2 -3 -1 -1 -2 -0 -2 -1 -2 -5 1 3 1 2 -2 -1 3 4 4 3 17 -11 1 7 0 11
-2 -1 0 -2 1 -2 0 -3 -1 -2 -3 0 -0 -1 -0 -1 1 -1 -3 0 0 -1 -1 -0 2 -3 -3 2 4 2 0 -4 -5 8 -3 16 16 -4 26 -2 -4 4 -1
1 0 5 3 0 -1 -3 0 -2 -1 -2 0 0 0 1 -0 -1 -1 -1 1 0 0 -1 -1 1 2 -4 2 3 2 -0 -10 -12 15 5 -11 16 -2 -2 10 -7 -1 -8
-2 -1 1 1 1 -4 -1 1 -0 -2 -3 0 0 -2 2 0 -0 -2 2 3 1 5 -1 1 1 -2 -2 2 0 3 -2 -2 6 -10 -5 -8 24 25 2 16 -4 1 7
4 5 3 1 1 -2 -3 2 1 -2 -3 -3 -1 3 1 -1 -1 -1 3 4 0 5 -0 2 -2 -2 -1 3 -1 3 0 3 -6 8 0 4 -3 22 3 -7 17 -0 7
3 3 2 1 2 -0 -2 0 0 -3 -3 -3 1 1 1 -1 -0 -1 1 2 1 4 3 1 -1 -1 1 1 2 5 5 3 -8 3 5 8 21 19 17 7 -2 5 6
1 -0 2 1 1 1 2 -1 -2 -3 -6 -0 0 1 -1 -1 0 -0 2 3 4 2 5 1 1 1 -0 -2 -1 -3 -1 5 -0 -0 -7 -6 -8 16 23 27 5 -3 3
1 -2 -0 0 0 -1 0 1 -3 -2 -5 -0 -0 1 1 -2 1 0 -1 0 6 1 7 2 1 0 -1 6 4 2 -3 -5 10 10 9 5 -11 26 2 16 -3 9 -2
1 1 1 -1 1 -0 -0 2 1 -3 1 -4 -2 1 -1 2 0 0 0 7 5 1 6 1 -1 3 2 1 1 -1 5 7 8 0 -3 -0 -9 -14 8 17 1 6 2
Height
3082 3077 3072 3067 3062 3058 3054 3048 3045 3042 3036 3031 3026 3023 3020 3017 3015 3016 3019 3022 3024 3025 3029 3032 3034 3037 3043 3049 3053 3057 3065 3074 3076 3072 3087 3089 3099 3107 3113 3118 3122 3127 3131
3077 3071 3066 3062 3056 3051 3046 3041 3036 3032 3028 3024 3017 3012 3009 3009 3006 3005 3007 3011 3015 3017 3020 3023 3026 3029 3033 3038 3043 3047 3053 3065 3073 3073 3080 3082 3091 3099 3107 3112 3119 3123 3126
3073 3067 3061 3055 3050 3046 3041 3036 3031 3024 3019 3013 3009 3003 3001 3000 2997 2997 2997 3001 3004 3007 3010 3014 3017 3020 3024 3029 3034 3039 3043 3052 3065 3065 3069 3078 3079 3090 3099 3107 3113 3118 3123
3066 3060 3056 3051 3045 3039 3034 3029 3024 3018 3013 3007 3000 2997 2992 2991 2991 2989 2990 2991 2994 2997 3000 3004 3008 3011 3015 3020 3024 3029 3034 3040 3048 3061 3064 3071 3075 3080 3090 3099 3107 3113 3117
3064 3059 3053 3045 3039 3033 3029 3023 3018 3012 3006 3001 2994 2987 2985 2982 2983 2981 2980 2982 2985 2987 2990 2993 2999 3003 3006 3011 3017 3021 3027 3032 3036 3048 3057 3061 3066 3072 3081 3090 3099 3107 3111
3059 3052 3046 3040 3034 3027 3022 3017 3012 3006 3000 2994 2990 2983 2977 2975 2973 2975 2971 2973 2974 2977 2981 2983 2987 2994 2998 3002 3006 3012 3018 3024 3031 3037 3046 3056 3065 3062 3074 3083 3091 3099 3103
3052 3047 3040 3034 3028 3022 3015 3010 3004 2998 2992 2984 2979 2976 2970 2965 2964 2963 2963 2961 2962 2966 2970 2973 2976 2981 2988 2992 2997 3002 3008 3014 3021 3028 3037 3048 3057 3061 3069 3078 3086 3092 3098
3047 3040 3033 3025 3020 3014 3007 3002 2996 2989 2983 2976 2969 2963 2961 2956 2953 2952 2950 2950 2949 2951 2957 2960 2964 2968 2975 2980 2985 2992 2997 3004 3012 3020 3027 3037 3046 3052 3057 3066 3077 3086 3090
3043 3034 3027 3019 3012 3006 3000 2993 2987 2981 2974 2967 2960 2953 2947 2946 2943 2940 2938 2936 2938 2940 2941 2946 2951 2955 2960 2968 2973 2979 2986 2993 3002 3009 3019 3027 3034 3044 3049 3059 3068 3075 3082
3040 3031 3022 3013 3004 2997 2991 2984 2978 2971 2964 2957 2951 2943 2937 2932 2931 2929 2925 2927 2927 2926 2925 2930 2938 2942 2945 2952 2959 2967 2975 2983 2993 3000 3008 3020 3025 3030 3041 3050 3060 3068 3081
3033 3023 3013 3003 2996 2989 2982 2975 2969 2961 2953 2946 2940 2934 2927 2922 2917 2918 2921 2918 2915 2916 2915 2913 2915 2926 2932 2937 2944 2952 2961 2970 2980 2986 2997 3009 3014 3021 3030 3042 3052 3061 3070
3023 3015 3004 2993 2985 2977 2972 2966 2958 2950 2943 2935 2929 2923 2917 2911 2907 2903 2902 2906 2907 2905 2904 2903 2903 2906 2914 2921 2928 2934 2945 2954 2966 2975 2984 2996 3007 3013 3018 3032 3042 3050 3060
3012 3003 2994 2984 2974 2967 2960 2953 2947 2939 2931 2923 2916 2912 2906 2900 2897 2895 2891 2887 2886 2889 2890 2889 2890 2893 2897 2902 2909 2919 2926 2939 2953 2963 2971 2983 2991 3001 3007 3021 3033 3041 3052
3001 2988 2979 2970 2962 2955 2947 2940 2934 2926 2918 2910 2904 2899 2894 2888 2885 2883 2881 2878 2877 2875 2875 2876 2875 2878 2881 2885 2891 2901 2908 2921 2937 2946 2957 2965 2977 2988 2998 3011 3022 3032 3043
2985 2976 2966 2957 2949 2942 2933 2927 2922 2913 2905 2898 2891 2886 2881 2875 2872 2870 2868 2864 2862 2861 2860 2859 2859 2862 2865 2867 2874 2883 2890 2903 2919 2931 2942 2956 2963 2976 2988 2998 3011 3022 3031
2974 2964 2955 2946 2938 2929 2921 2916 2909 2901 2893 2885 2878 2871 2866 2861 2859 2856 2852 2848 2845 2844 2843 2842 2843 2845 2849 2854 2856 2864 2871 2885 2901 2914 2929 2942 2954 2961 2975 2986 2999 3011 3019
2963 2952 2943 2936 2926 2917 2909 2902 2897 2889 2880 2872 2865 2858 2852 2846 2844 2841 2837 2833 2829 2827 2825 2825 2827 2830 2834 2838 2841 2846 2853 2867 2885 2900 2916 2926 2941 2953 2965 2977 2989 3003 3012
2953 2942 2932 2924 2915 2906 2898 2892 2887 2878 2869 2861 2853 2846 2839 2833 2829 2826 2822 2818 2814 2810 2810 2809 2812 2815 2819 2823 2825 2830 2837 2852 2869 2884 2900 2915 2931 2939 2951 2968 2980 2992 3003
2943 2932 2922 2913 2905 2895 2888 2882 2875 2866 2858 2849 2842 2835 2827 2820 2816 2813 2810 2805 2800 2796 2794 2794 2796 2800 2805 2809 2813 2817 2824 2838 2855 2870 2886 2901 2913 2928 2943 2958 2968 2984 2994
2932 2921 2912 2905 2895 2887 2879 2871 2864 2855 2848 2839 2831 2823 2815 2808 2804 2802 2798 2793 2786 2783 2780 2779 2783 2788 2792 2797 2801 2805 2813 2828 2843 2860 2873 2892 2901 2917 2935 2946 2958 2971 2982
2922 2912 2902 2895 2887 2878 2869 2862 2854 2845 2838 2829 2820 2812 2804 2796 2793 2791 2788 2783 2775 2769 2766 2766 2770 2776 2780 2785 2790 2795 2803 2818 2832 2847 2861 2878 2889 2905 2922 2938 2948 2962 2976
2913 2903 2894 2888 2881 2872 2861 2853 2845 2836 2828 2819 2809 2801 2792 2786 2782 2780 2778 2773 2766 2759 2757 2757 2760 2765 2771 2776 2781 2786 2795 2809 2823 2837 2855 2871 2883 2898 2914 2926 2941 2955 2966
2903 2894 2886 2880 2874 2864 2854 2843 2835 2826 2818 2809 2801 2791 2781 2775 2773 2771 2768 2763 2758 2753 2749 2749 2751 2755 2763 2767 2773 2777 2786 2800 2814 2830 2843 2858 2876 2889 2904 2920 2932 2944 2955
2896 2887 2880 2874 2866 2857 2848 2838 2827 2818 2810 2800 2791 2781 2772 2767 2765 2762 2759 2755 2750 2746 2743 2742 2744 2748 2755 2759 2764 2770 2778 2792 2806 2822 2836 2853 2866 2880 2897 2910 2923 2933 2945
2889 2881 2873 2866 2857 2849 2840 2831 2821 2811 2802 2794 2783 2773 2766 2761 2757 2754 2750 2747 2744 2740 2737 2735 2738 2741 2746 2752 2757 2763 2773 2787 2802 2816 2830 2844 2858 2872 2887 2900 2913 2925 2935
2883 2876 2869 2860 2852 2843 2834 2825 2817 2806 2795 2785 2775 2768 2760 2755 2751 2747 2743 2742 2738 2734 2731 2729 2731 2735 2740 2746 2752 2759 2768 2780 2795 2806 2821 2838 2851 2869 2881 2888 2902 2915 2927